Regional Weather Roundup
Issued by NWS

Home | Current Version | Previous Version | Text Only | Print | Product List | Glossary Off
Versions: 1 2 3 4 5 6 7 8 9 10 11 12 13 14 15 16 17 18 19 20 21 22 23 24 25 26 27 28 29 30 31 32 33 34 35 36 37 38 39 40 41 42 43 44 45 46 47 48 49 50

596
ASUS43 KIND 091209
RWRIN

WEATHER ROUNDUP FOR INDIANA
NATIONAL WEATHER SERVICE INDIANAPOLIS IN
700 AM EST TUE FEB 09 2016

NOTE: "FAIR" INDICATES FEW OR NO CLOUDS BELOW 12,000 FEET WITH NO
SIGNIFICANT WEATHER AND/OR OBSTRUCTIONS TO VISIBILITY.

* - STATION DOES NOT REPORT WEATHER SUCH AS PRECIPITATION OR FOG.

+ - STATION NOT QUALITY CONTROLLED BY THE NATIONAL WEATHER SERVICE.
    USE DATA WITH CAUTION...ESPECIALLY DEWPOINT AND RELATIVE
    HUMIDITY OBSERVATIONS.

INZ001>003-010>013-019-020-091300-
NORTHWEST INDIANA

CITY           SKY/WX    TMP DP  RH WIND       PRES   REMARKS
GARY /AIRPORT/ FLURRIES  21  14  73 W14       29.76R WCI   8
KNOX *+        CLOUDY    21  19  93 W14       29.71R WCI   8
LA PORTE +     LGT SNOW  25  24  97 W9G18     29.70R WCI  15
6HR MIN TEMP:  24; 6HR MAX TEMP:  27;

MICHIGAN CITY+ LGT SNOW  27  25  93 NW10G21   29.71S VSB 1   WCI  17
MONTICELLO +   LGT SNOW  21  15  78 W12       29.74R WCI   9
6HR MIN TEMP:  21; 6HR MAX TEMP:  25;

RENSSELAER +   LGT SNOW  21  18  86 W10G17    29.75R WCI  10
VALPARAISO     LGT SNOW  20  16  84 W14       29.72R WCI   7
6HR MIN TEMP:  20; 6HR MAX TEMP:  25; 6HR PCP: TRACE;


$$

LMZ046-743>745-091300-
SOUTHERN LAKE MICHIGAN

STATION/POSITION TIME  TEMP    WIND        PRES    WAVE
                       AIR SEA DIR/SP/G            HT
                 (UTC) (F)     (DEG/KT/KT) (MB)    (FT)
BURNS HARBOR     1100   22     300/ 18/ 20 1007.1R
MICHIGAN CITY    1100   24     260/ 24/ 27   N/A

$$

INZ004-005-014>016-021>024-091300-
NORTH CENTRAL INDIANA

CITY           SKY/WX    TMP DP  RH WIND       PRES   REMARKS
GOSHEN         CLOUDY    26  22  84 W13       29.64R WCI  15
6HR MIN TEMP:  26; 6HR MAX TEMP:  27; 6HR PCP: TRACE;

LOGANSPORT +   LGT SNOW  21  18  86 W14G21    29.73R VSB 1   WCI   8
PERU/GRISSOM   LGT SNOW  22  19  91 W16       29.69R FOG     WCI   8
6HR MIN TEMP:  22; 6HR MAX TEMP:  24; 6HR PCP: TRACE;

ROCHESTER +    LGT SNOW  25  19  80 W12G17    29.69R WCI  14
SOUTH BEND     FLURRIES  27  24  89 NW15      29.67R WCI  15
6HR MIN TEMP:  24; 6HR MAX TEMP:  27; 6HR PCP:  0.02;

WARSAW +       LGT SNOW  23  21  93 W15G21    29.66R WCI  10

$$

INZ006>009-017-018-025>027-091300-
NORTHEAST INDIANA

CITY           SKY/WX    TMP DP  RH WIND       PRES   REMARKS
ANGOLA *+      MOCLDY    27  27 100 W9        29.59R WCI  17
AUBURN +       CLOUDY    28  23  80 W8G16     29.63R WCI  20
FORT WAYNE     LGT SNOW  27  21  78 W16       29.66R WCI  15
6HR MIN TEMP:  27; 6HR MAX TEMP:  29; 6HR PCP: TRACE;

HUNTINGTON +   LGT SNOW  23  18  81 W14G22    29.67R WCI  10
6HR MIN TEMP:  23; 6HR MAX TEMP:  25;


$$

INZ028-029-035-036-043>045-051>053-091300-
WEST CENTRAL INDIANA

CITY           SKY/WX    TMP DP  RH WIND       PRES   REMARKS
GREENCASTLE +  LGT SNOW  19  12  73 W9        29.78R WCI   9
LAFAYETTE      FLURRIES  19  15  84 W10       29.76R WCI   7
6HR MIN TEMP:  19; 6HR MAX TEMP:  22; 6HR PCP: TRACE;

TERRE HAUTE    LGT SNOW  19  14  81 NW10      29.81R WCI   7
6HR MIN TEMP:  19; 6HR MAX TEMP:  20; 6HR PCP: TRACE;


$$

INZ030>032-037>040-046>048-054>057-064-065-091300-
CENTRAL INDIANA

CITY           SKY/WX    TMP DP  RH WIND       PRES   REMARKS
FRANKFORT +    LGT SNOW  21  13  72 W14       29.76R WCI   8
6HR MIN TEMP:  21; 6HR MAX TEMP:  23;

GREENWOOD *+   CLOUDY    21  19  93 W8G21     29.76R WCI  12
INDIANAPOLIS   LGT SNOW  20  16  84 W17       29.75R FOG     WCI   5
6HR MIN TEMP:  20; 6HR MAX TEMP:  22; 6HR PCP: TRACE;

-EAGLE CREEK   LGT SNOW  20  16  84 W12       29.75R FOG     WCI   8
6HR MIN TEMP:  20; 6HR MAX TEMP:  22; 6HR PCP: TRACE;

KOKOMO *+      CLOUDY    21  16  79 W16       29.71R WCI   7
6HR MIN TEMP:  21; 6HR MAX TEMP:  25;

MARION +       CLOUDY    22  14  72 W14G21    29.70S HAZE    WCI   9
MT COMFORT *+  CLOUDY    21  18  86 W16       29.74R WCI   7
SHELBYVILLE    LGT SNOW  22  17  81 W14       29.74R WCI   9
6HR MIN TEMP:  22; 6HR MAX TEMP:  23; 6HR PCP: TRACE;

ZIONSVILLE +   LGT SNOW  19  16  86 W14       29.74R WCI   6
6HR MIN TEMP:  19; 6HR MAX TEMP:  21;


$$

INZ033-034-041-042-049-050-058-059-091300-
EAST CENTRAL INDIANA

CITY           SKY/WX    TMP DP  RH WIND       PRES   REMARKS
MUNCIE         FLURRIES  23  18  81 W13       29.69R WCI  11
6HR MIN TEMP:  23; 6HR MAX TEMP:  25; 6HR PCP: TRACE;


$$

INZ060-061-067>069-081>083-085>088-091300-
SOUTHWEST INDIANA

CITY           SKY/WX    TMP DP  RH WIND       PRES   REMARKS
EVANSVILLE     CLOUDY    23  13  65 NW12G17   29.87R WCI  12
6HR MIN TEMP:  23; 6HR MAX TEMP:  24; 6HR PCP: TRACE;

HUNTINGBURG *+ CLOUDY    19  12  73 NW12      29.85R WCI   7
6HR MIN TEMP:  19; 6HR MAX TEMP:  21;

WASHINGTON +   FLURRIES  20  14  78 W10       29.84R WCI   8
6HR MIN TEMP:  19; 6HR MAX TEMP:  21;


$$

INZ062-063-066-070>080-084-089>092-091300-
SOUTH CENTRAL AND SOUTHEAST INDIANA

CITY           SKY/WX    TMP DP  RH WIND       PRES   REMARKS
BEDFORD +      FLURRIES  19  16  86 W10G16    29.80R WCI   8
BLOOMINGTON    FLURRIES  20  15  81 W9        29.78R WCI   9
6HR MIN TEMP:  19; 6HR MAX TEMP:  20; 6HR PCP: TRACE;

MADISON *+     CLOUDY    21  16  79 W6        29.79R WCI  14
NORTH VERNON + LGT SNOW  21  19  93 CALM      29.77R
SEYMOUR +      LGT SNOW  23  16  74 W13       29.79R WCI  11

$$





USA.gov is the U.S. government's official web portal to all federal, state and local government web resources and services.